| time (UTC) | temp F | wind direction | speed MPH | gust MPH | rain 1hr in | rain 24hr in | rain mn in | humidity % | barometer mb |
| 20260510101501 | 36 | 144 | 0.0 | 0.0 | 0.00 | 0.01 | 0.01 | 93 | 1010.6 |
| 20260510100050 | 36 | 144 | 0.0 | 0.0 | 0.00 | 0.01 | 0.01 | 93 | 1010.4 |
| 20260510094536 | 36 | 144 | 0.0 | 0.0 | 0.01 | 0.01 | 0.01 | 92 | 1010.4 |
| 20260510093056 | 36 | 144 | 0.0 | 0.0 | 0.01 | 0.01 | 0.01 | 92 | 1010.2 |
| 20260510091519 | 36 | 139 | 2.0 | 4.0 | 0.01 | 0.01 | 0.01 | 92 | 1010.0 |
| 20260510090128 | 36 | 329 | 0.0 | 2.0 | 0.01 | 0.01 | 0.01 | 92 | 1010.2 |
| 20260510084532 | 36 | 348 | 1.0 | 4.0 | 0.00 | 0.00 | 0.00 | 91 | 1009.9 |
| 20260510083057 | 37 | 325 | 0.0 | 2.0 | 0.00 | 0.00 | 0.00 | 91 | 1009.8 |
| 20260510081608 | 37 | 325 | 1.0 | 4.0 | 0.00 | 0.00 | 0.00 | 91 | 1009.6 |
| 20260510080113 | 37 | 309 | 1.0 | 3.0 | 0.00 | 0.00 | 0.00 | 91 | 1009.5 |
| 20260510074622 | 37 | 309 | 1.0 | 4.0 | 0.00 | 0.00 | 0.00 | 91 | 1009.5 |
| 20260510073023 | 37 | 309 | 2.0 | 5.0 | 0.00 | 0.00 | 0.00 | 92 | 1009.2 |
| 20260510071626 | 37 | 317 | 0.0 | 5.0 | 0.00 | 0.00 | 0.00 | 91 | 1009.2 |
| 20260510070042 | 36 | 318 | 3.0 | 4.0 | 0.00 | 0.00 | 0.00 | 91 | 1009.1 |
| 20260510064543 | 36 | 32 | 1.0 | 5.0 | 0.00 | 0.00 | 0.00 | 90 | 1008.5 |
| 20260510063044 | 37 | 95 | 1.0 | 5.0 | 0.00 | 0.00 | 0.00 | 89 | 1008.2 |
| 20260510061532 | 37 | 339 | 3.0 | 8.0 | 0.00 | 0.00 | 0.00 | 89 | 1007.8 |
| 20260510060101 | 38 | 107 | 2.0 | 5.0 | 0.00 | 0.00 | 0.00 | 90 | 1007.2 |
| 20260510054608 | 38 | 51 | 2.0 | 10.0 | 0.00 | 0.00 | 0.00 | 91 | 1007.3 |
| 20260510053107 | 37 | 128 | 3.0 | 11.0 | 0.00 | 0.00 | 0.00 | 92 | 1007.8 |
| 20260510051609 | 37 | 325 | 8.0 | 15.0 | 0.00 | 0.00 | 0.00 | 91 | 1008.1 |
| 20260510050058 | 38 | 306 | 4.0 | 12.0 | 0.00 | 0.00 | 0.00 | 90 | 1008.0 |
| 20260510044626 | 38 | 74 | 5.0 | 17.0 | 0.00 | 0.00 | 0.00 | 90 | 1007.6 |
| 20260510043112 | 38 | 360 | 5.0 | 15.0 | 0.00 | 0.00 | 0.00 | 89 | 1007.6 |
| 20260510041614 | 39 | 355 | 5.0 | 15.0 | 0.00 | 0.00 | 0.00 | 86 | 1007.5 |
| 20260510040118 | 40 | 344 | 8.0 | 20.0 | 0.00 | 0.00 | 0.00 | 83 | 1007.1 |
| 20260510034612 | 41 | 325 | 10.0 | 24.0 | 0.00 | 0.00 | 0.00 | 77 | 1006.8 |
| 20260510033126 | 44 | 294 | 7.0 | 17.0 | 0.00 | 0.00 | 0.00 | 68 | 1006.0 |
| 20260510031620 | 48 | 313 | 5.0 | 15.0 | 0.00 | 0.00 | 0.00 | 50 | 1005.7 |
| 20260510030123 | 50 | 321 | 0.0 | 8.0 | 0.00 | 0.00 | 0.00 | 39 | 1005.4 |
| 20260510024558 | 50 | 65 | 1.0 | 5.0 | 0.00 | 0.00 | 0.00 | 38 | 1005.0 |
| 20260510023104 | 50 | 41 | 1.0 | 4.0 | 0.00 | 0.00 | 0.00 | 37 | 1004.6 |
| 20260510021652 | 51 | 79 | 2.0 | 5.0 | 0.00 | 0.00 | 0.00 | 36 | 1004.3 |
| 20260510020118 | 52 | 112 | 0.0 | 5.0 | 0.00 | 0.00 | 0.00 | 36 | 1004.0 |
| 20260510014621 | 52 | 104 | 2.0 | 4.0 | 0.00 | 0.00 | 0.00 | 34 | 1003.8 |
| 20260510013005 | 53 | 118 | 1.0 | 4.0 | 0.00 | 0.00 | 0.00 | 33 | 1003.9 |
| 20260510011553 | 54 | 21 | 0.0 | 4.0 | 0.00 | 0.00 | 0.00 | 28 | 1003.9 |
| 20260510010054 | 54 | 355 | 0.0 | 1.0 | 0.00 | 0.00 | 0.00 | 29 | 1003.5 |
| 20260510004553 | 55 | 349 | 0.0 | 4.0 | 0.00 | 0.00 | 0.00 | 27 | 1003.4 |
| 20260510003013 | 55 | 263 | 0.0 | 2.0 | 0.00 | 0.00 | 0.00 | 27 | 1003.4 |
| 20260510001632 | 55 | 263 | 0.0 | 5.0 | 0.00 | 0.00 | 0.00 | 28 | 1003.3 |
| 20260510000122 | 56 | 342 | 1.0 | 3.0 | 0.00 | 0.00 | 0.00 | 27 | 1003.3 |
| 20260509234626 | 56 | 342 | 1.0 | 6.0 | 0.00 | 0.00 | 0.00 | 28 | 1003.3 |
| 20260509233119 | 56 | 298 | 1.0 | 6.0 | 0.00 | 0.00 | 0.00 | 28 | 1003.4 |
| 20260509231613 | 57 | 327 | 5.0 | 18.0 | 0.00 | 0.00 | 0.00 | 26 | 1003.2 |
| 20260509230112 | 59 | 44 | 5.0 | 12.0 | 0.00 | 0.00 | 0.00 | 23 | 1002.7 |
| 20260509224613 | 59 | 330 | 4.0 | 10.0 | 0.00 | 0.00 | 0.00 | 20 | 1002.4 |
| 20260509223026 | 62 | 324 | 4.0 | 17.0 | 0.00 | 0.00 | 0.00 | 15 | 1002.3 |
| 20260509221617 | 62 | 317 | 3.0 | 13.0 | 0.00 | 0.00 | 0.00 | 18 | 1002.4 |
| 20260509220119 | 64 | 294 | 4.0 | 15.0 | 0.00 | 0.00 | 0.00 | 18 | 1002.5 |
| 20260509214615 | 64 | 233 | 5.0 | 13.0 | 0.00 | 0.00 | 0.00 | 14 | 1002.5 |
| 20260509213116 | 61 | 252 | 2.0 | 12.0 | 0.00 | 0.00 | 0.00 | 19 | 1002.7 |
| 20260509211607 | 62 | 331 | 5.0 | 14.0 | 0.00 | 0.00 | 0.00 | 21 | 1002.9 |
| 20260509210107 | 63 | 290 | 4.0 | 15.0 | 0.00 | 0.00 | 0.00 | 21 | 1003.0 |
| 20260509204606 | 64 | 279 | 6.0 | 12.0 | 0.00 | 0.00 | 0.00 | 16 | 1003.0 |
| 20260509203107 | 63 | 260 | 4.0 | 16.0 | 0.00 | 0.00 | 0.00 | 17 | 1003.2 |
| 20260509201609 | 62 | 313 | 6.0 | 14.0 | 0.00 | 0.00 | 0.00 | 17 | 1003.4 |
| 20260509200105 | 63 | 275 | 4.0 | 9.0 | 0.00 | 0.00 | 0.00 | 19 | 1003.5 |
| 20260509194603 | 60 | 274 | 5.0 | 12.0 | 0.00 | 0.00 | 0.00 | 20 | 1003.8 |
| 20260509193113 | 61 | 305 | 5.0 | 10.0 | 0.00 | 0.00 | 0.00 | 22 | 1003.9 |
| 20260509191621 | 61 | 317 | 5.0 | 11.0 | 0.00 | 0.00 | 0.00 | 21 | 1004.1 |
| 20260509190018 | 61 | 316 | 4.0 | 11.0 | 0.00 | 0.00 | 0.00 | 22 | 1004.1 |
| 20260509184534 | 61 | 273 | 4.0 | 11.0 | 0.00 | 0.00 | 0.00 | 25 | 1004.0 |
| 20260509183058 | 59 | 277 | 5.0 | 15.0 | 0.00 | 0.00 | 0.00 | 30 | 1004.2 |
| 20260509181555 | 59 | 267 | 5.0 | 13.0 | 0.00 | 0.00 | 0.00 | 26 | 1004.6 |
| 20260509180115 | 58 | 275 | 5.0 | 10.0 | 0.00 | 0.00 | 0.00 | 27 | 1004.4 |
| 20260509174605 | 57 | 302 | 4.0 | 13.0 | 0.00 | 0.00 | 0.00 | 29 | 1004.6 |
| 20260509173148 | 57 | 311 | 6.0 | 14.0 | 0.00 | 0.00 | 0.00 | 29 | 1004.8 |
| 20260509171620 | 57 | 290 | 3.0 | 9.0 | 0.00 | 0.00 | 0.00 | 30 | 1005.0 |
| 20260509170120 | 56 | 306 | 2.0 | 11.0 | 0.00 | 0.00 | 0.00 | 30 | 1004.9 |
| 20260509164610 | 56 | 295 | 3.0 | 8.0 | 0.00 | 0.00 | 0.00 | 30 | 1004.9 |
| 20260509163117 | 54 | 344 | 3.0 | 10.0 | 0.00 | 0.00 | 0.00 | 31 | 1004.9 |
| 20260509161608 | 54 | 281 | 3.0 | 11.0 | 0.00 | 0.00 | 0.00 | 34 | 1004.7 |
| 20260509160112 | 53 | 309 | 3.0 | 10.0 | 0.00 | 0.00 | 0.00 | 32 | 1004.7 |
| 20260509154610 | 52 | 298 | 5.0 | 12.0 | 0.00 | 0.00 | 0.00 | 33 | 1004.8 |
| 20260509153112 | 51 | 299 | 3.0 | 10.0 | 0.00 | 0.00 | 0.00 | 38 | 1004.9 |
| 20260509151604 | 50 | 310 | 2.0 | 9.0 | 0.00 | 0.00 | 0.00 | 38 | 1005.1 |
| 20260509150110 | 50 | 315 | 5.0 | 11.0 | 0.00 | 0.00 | 0.00 | 37 | 1005.1 |
| 20260509144620 | 49 | 287 | 2.0 | 10.0 | 0.00 | 0.00 | 0.00 | 41 | 1005.1 |
| 20260509143132 | 47 | 355 | 2.0 | 6.0 | 0.00 | 0.00 | 0.00 | 44 | 1005.0 |
| 20260509141636 | 46 | 317 | 2.0 | 4.0 | 0.00 | 0.00 | 0.00 | 48 | 1005.1 |
| 20260509140123 | 45 | 342 | 1.0 | 4.0 | 0.00 | 0.00 | 0.00 | 50 | 1005.2 |
| 20260509134621 | 45 | 335 | 1.0 | 4.0 | 0.00 | 0.00 | 0.00 | 51 | 1005.0 |
| 20260509133015 | 45 | 340 | 0.0 | 4.0 | 0.00 | 0.00 | 0.00 | 53 | 1004.9 |
| 20260509131622 | 45 | 347 | 0.0 | 3.0 | 0.00 | 0.00 | 0.00 | 54 | 1004.7 |
| 20260509130112 | 43 | 9 | 0.0 | 3.0 | 0.00 | 0.00 | 0.00 | 59 | 1004.6 |
| 20260509124618 | 42 | 28 | 0.0 | 1.0 | 0.00 | 0.00 | 0.00 | 61 | 1004.5 |
| 20260509123023 | 42 | 31 | 0.0 | 6.0 | 0.00 | 0.00 | 0.00 | 60 | 1004.1 |
| 20260509121518 | 41 | 138 | 0.0 | 2.0 | 0.00 | 0.00 | 0.00 | 61 | 1004.0 |
| 20260509120014 | 41 | 138 | 0.0 | 0.0 | 0.00 | 0.00 | 0.00 | 62 | 1003.6 |
| 20260509114502 | 41 | 138 | 0.0 | 0.0 | 0.00 | 0.00 | 0.00 | 62 | 1003.6 |
| 20260509113051 | 41 | 138 | 0.0 | 0.0 | 0.00 | 0.00 | 0.00 | 63 | 1003.6 |
| 20260509111602 | 41 | 138 | 0.0 | 0.0 | 0.00 | 0.00 | 0.00 | 63 | 1003.7 |
| 20260509110111 | 40 | 138 | 0.0 | 0.0 | 0.00 | 0.00 | 0.00 | 63 | 1003.5 |
| 20260509104616 | 40 | 138 | 0.0 | 0.0 | 0.00 | 0.00 | 0.00 | 65 | 1003.6 |
| 20260509103115 | 40 | 138 | 0.0 | 0.0 | 0.00 | 0.00 | 0.00 | 65 | 1003.6 |